SL-16 DEB, 39304

Orbit data source: Space-Track

SL-16 DEB, 39304 is space debris in LEO originally from a launch on Fri, 25 Dec 1992 UTC launched from the Tyuratam Missile And Space Complex (TTMTR). Debris objects in space refer to the collection of defunct objects orbiting the Earth. Examples of debris include non-operational satellites, rocket bodies, and fragments generated from explosions, collisions, or faulty payload assembly.

Loading next visibility...
Identifier
39304, 1992-093JV
Orbit
LEO
Country
Flag of CISCIS
Related business
Manufacturer
Unknown
Mission
Spacecraft
Bus & Motor
Unknown
Mass
Unknown
Launch date (UTC)
1992-12-25 (33 years ago)
Launch vehicle
Unknown
Launch site
Tyuratam Missile And Space Complex (TTMTR)
Object type
Payload
Rocket body
Debris
Shape & HBR
Unknown shape, 0.1 m
Radar Cross Section
Small (<0.1 m²)

Expand to show TLE details & history
Last TLE update: 1 day ago

TLE from 1 day ago
0 SL-16 DEB
1 39304U 92093JV  26132.55071712  .00000383  00000-0  26460-3 0  9999
2 39304  71.2057  64.8694 0087099  44.6036 316.2046 14.03288486656010
Epoch: 2026-05-12T13:13Z
TLE epoch observation values (Epoch: 2026-05-12T13:13:01.959Z)
Latitude
-0.00006°
Longitude
-3.71226°
Altitude
839.443 km
Speed
7.457 km/s
True Right ascension
04h 19m 28s
True Declination
0° 00' 00"
Sunlit
Object was in daylight at epoch
Visualization orbit readout
Latitude
Unknown
Longitude
Unknown
Altitude
Unknown
Speed
Unknown
Apparent Right ascension
Unknown
Apparent Declination
Unknown
Sunlit
N/A
Visualization observer readout
Local Sidereal Time
00:49:46
Azimuth
Unknown
Elevation
Unknown
Doppler factor
Unknown
Orbital elements
Apogee altitude
943.567 km
Perigee altitude
817.125 km
Semi-major axis
7,258.483 km
Eccentricity
0.00871
Inclination
71.2057°
RAAN
64.8694°
Arg. of periapsis
44.6036°
True anomaly
315.50839°
Mean anomaly
316.2046°
Eccentric anomaly
315.85704°
Mean motion
3.50974 °/min
Orbital period
102.57 mins
BSTAR
0.0002646
Loading maneuver chart data...
Computing Atmospheric mass density...
Loading historical data...
Loading historical data...
Loading historical data...
Loading historical data...
Loading historical data...
Loading historical data...
Loading historical data...

Documentation

Showing up to 5 results
|